{"data":{"norad_id":59717,"intl_designator":"2024-088K","name":"STARLINK-11084 [DTC]","alt_names":[],"object_type":"PAYLOAD","status":"ACTIVE","operator":null,"country":"US","launch_date":"2024-05-10","launch_site_code":"AFWTR","launch_vehicle":null,"mission":null,"orbit_class":"UNKNOWN","rcs_meters":null,"size_class":null,"mass_kg":null,"dimensions":null,"purposes":["comms"],"wikipedia_slug":null,"has_3d_model":false,"image_url":null,"decayed_at":null,"tle_current":{"epoch":"2026-05-25T03:40:02.676000Z","epoch_age_seconds":65867,"freshness":"FRESH","line1":"1 59717U 24088K   26145.15280875 -.00002057  00000+0 -12133-4 0  9994","line2":"2 59717  53.1574 309.1851 0000894  11.1512 348.9526 15.69703738118281","mean_motion":15.69703738,"eccentricity":8.94e-5,"inclination_deg":53.1574,"raan_deg":309.1851,"arg_perigee_deg":11.1512,"mean_anomaly_deg":348.9526,"bstar":-1.2133e-5,"rev_number":11828,"period_min":91.737056180725,"perigee_km":359.1423033051,"apogee_km":360.34703654768,"semimajor_km":6737.8816699264,"source":"CELESTRAK","updated_at":"2026-05-25T13:38:19.047536Z"}}}